Time,TemperatureF,DewpointF,PressureIn,WindDirection,WindDirectionDegrees,WindSpeedMPH,WindSpeedGustMPH,Humidity,HourlyPrecipIn,Conditions,Clouds,dailyrainin,SoftwareType,DateUTC
2013-07-03 00:04:00,68.1,64.0,30.07,West,277,0.0,2.0,87,0.00,,,0.00,weatherlink.com 1.10,2013-07-02 22:04:00,
2013-07-03 00:19:00,67.6,64.0,30.07,NNW,328,2.0,4.0,87,0.00,,,0.00,weatherlink.com 1.10,2013-07-02 22:19:00,
2013-07-03 00:34:00,67.6,64.0,30.08,NW,316,1.0,4.0,89,0.00,,,0.00,weatherlink.com 1.10,2013-07-02 22:34:00,
2013-07-03 00:49:00,67.5,64.0,30.07,NW,316,2.0,3.0,89,0.00,,,0.00,weatherlink.com 1.10,2013-07-02 22:49:00,
2013-07-03 01:04:00,67.5,65.0,30.07,NW,311,2.0,2.0,90,0.00,,,0.00,weatherlink.com 1.10,2013-07-02 23:04:00,
2013-07-03 01:19:00,67.7,64.0,30.07,WNW,301,0.0,0.0,89,0.00,,,0.00,weatherlink.com 1.10,2013-07-02 23:19:00,
2013-07-03 01:34:00,66.9,64.0,30.07,SE,141,2.0,3.0,89,0.00,,,0.00,weatherlink.com 1.10,2013-07-02 23:34:00,
2013-07-03 01:49:00,66.8,64.0,30.07,South,179,0.0,1.0,90,0.00,,,0.00,weatherlink.com 1.10,2013-07-02 23:49:00,
2013-07-03 02:04:00,66.8,64.0,30.06,South,178,0.0,0.0,90,0.00,,,0.00,weatherlink.com 1.10,2013-07-03 00:04:00,
2013-07-03 02:19:00,67.0,64.0,30.06,NNE,22,0.0,2.0,90,0.00,,,0.00,weatherlink.com 1.10,2013-07-03 00:19:00,
2013-07-03 02:34:00,66.1,63.0,30.05,ESE,121,2.0,3.0,88,0.00,,,0.00,weatherlink.com 1.10,2013-07-03 00:34:00,
2013-07-03 02:49:00,65.3,62.0,30.05,ENE,71,0.0,1.0,90,0.00,,,0.00,weatherlink.com 1.10,2013-07-03 00:49:00,
2013-07-03 03:04:00,65.4,63.0,30.05,ESE,110,3.0,3.0,90,0.00,,,0.00,weatherlink.com 1.10,2013-07-03 01:04:00,
2013-07-03 03:19:00,64.9,62.0,30.05,SE,134,2.0,2.0,90,0.00,,,0.00,weatherlink.com 1.10,2013-07-03 01:19:00,
2013-07-03 03:34:00,65.1,63.0,30.04,NW,310,0.0,1.0,91,0.00,,,0.00,weatherlink.com 1.10,2013-07-03 01:34:00,
2013-07-03 03:49:00,64.5,62.0,30.03,WNW,300,0.0,1.0,91,0.00,,,0.00,weatherlink.com 1.10,2013-07-03 01:49:00,
2013-07-03 04:04:00,64.9,63.0,30.02,SE,124,3.0,3.0,92,0.00,,,0.00,weatherlink.com 1.10,2013-07-03 02:04:00,
2013-07-03 04:19:00,64.2,62.0,30.02,NE,44,0.0,2.0,91,0.00,,,0.00,weatherlink.com 1.10,2013-07-03 02:19:00,
2013-07-03 04:34:00,63.7,61.0,30.03,East,89,0.0,2.0,92,0.00,,,0.00,weatherlink.com 1.10,2013-07-03 02:34:00,
2013-07-03 05:19:00,63.9,62.0,30.03,NW,318,0.0,0.0,93,0.00,,,0.00,weatherlink.com 1.10,2013-07-03 03:19:00,
2013-07-03 05:34:00,64.5,63.0,30.04,NW,306,0.0,1.0,93,0.00,,,0.00,weatherlink.com 1.10,2013-07-03 03:34:00,
2013-07-03 05:49:00,64.4,63.0,30.05,East,101,1.0,1.0,94,0.00,,,0.00,weatherlink.com 1.10,2013-07-03 03:49:00,
2013-07-03 06:04:00,64.3,62.0,30.05,ESE,107,0.0,2.0,93,0.00,,,0.00,weatherlink.com 1.10,2013-07-03 04:04:00,
2013-07-03 06:19:00,64.2,62.0,30.05,ESE,114,0.0,2.0,93,0.00,,,0.00,weatherlink.com 1.10,2013-07-03 04:19:00,
2013-07-03 06:34:00,64.6,63.0,30.05,East,93,0.0,0.0,93,0.00,,,0.00,weatherlink.com 1.10,2013-07-03 04:34:00,
2013-07-03 06:49:00,65.2,63.0,30.05,NW,323,0.0,0.0,93,0.00,,,0.00,weatherlink.com 1.10,2013-07-03 04:49:00,
2013-07-03 07:04:00,65.5,64.0,30.05,South,186,0.0,1.0,93,0.00,,,0.00,weatherlink.com 1.10,2013-07-03 05:04:00,
2013-07-03 07:19:00,65.6,63.0,30.05,SSW,198,0.0,1.0,92,0.00,,,0.00,weatherlink.com 1.10,2013-07-03 05:19:00,
2013-07-03 07:35:00,66.1,64.0,30.05,SSW,205,1.0,2.0,92,0.00,,,0.00,weatherlink.com 1.10,2013-07-03 05:35:00,
2013-07-03 08:05:00,67.9,65.0,30.05,South,191,1.0,3.0,90,0.00,,,0.00,weatherlink.com 1.10,2013-07-03 06:05:00,
2013-07-03 08:35:00,71.2,67.0,30.05,South,181,0.0,3.0,86,0.00,,,0.00,weatherlink.com 1.10,2013-07-03 06:35:00,
2013-07-03 08:50:00,71.5,66.0,30.05,South,181,2.0,8.0,83,0.00,,,0.00,weatherlink.com 1.10,2013-07-03 06:50:00,
2013-07-03 09:05:00,72.7,67.0,30.06,SSE,165,3.0,6.0,81,0.00,,,0.00,weatherlink.com 1.10,2013-07-03 07:05:00,
2013-07-03 09:20:00,73.6,67.0,30.06,SE,132,4.0,8.0,79,0.00,,,0.00,weatherlink.com 1.10,2013-07-03 07:20:00,
2013-07-03 09:35:00,74.4,67.0,30.06,South,184,5.0,7.0,77,0.00,,,0.00,weatherlink.com 1.10,2013-07-03 07:35:00,
2013-07-03 09:50:00,75.1,67.0,30.06,South,173,10.0,10.0,75,0.00,,,0.00,weatherlink.com 1.10,2013-07-03 07:50:00,
2013-07-03 10:05:00,75.4,67.0,30.06,SSW,193,4.0,8.0,74,0.00,,,0.00,weatherlink.com 1.10,2013-07-03 08:05:00,
2013-07-03 10:20:00,75.8,67.0,30.07,SSE,165,7.0,10.0,74,0.00,,,0.00,weatherlink.com 1.10,2013-07-03 08:20:00,
2013-07-03 10:35:00,75.8,67.0,30.06,SSE,155,5.0,10.0,73,0.00,,,0.00,weatherlink.com 1.10,2013-07-03 08:35:00,
2013-07-03 10:50:00,76.3,67.0,30.06,SSW,208,8.0,10.0,74,0.00,,,0.00,weatherlink.com 1.10,2013-07-03 08:50:00,
2013-07-03 11:20:00,78.4,67.0,30.07,SE,129,3.0,11.0,69,0.00,,,0.00,weatherlink.com 1.10,2013-07-03 09:20:00,
2013-07-03 11:35:00,79.5,68.0,30.07,WNW,288,3.0,9.0,68,0.00,,,0.00,weatherlink.com 1.10,2013-07-03 09:35:00,
2013-07-03 11:50:00,78.3,67.0,30.07,WNW,293,3.0,13.0,69,0.00,,,0.00,weatherlink.com 1.10,2013-07-03 09:50:00,
2013-07-03 12:05:00,79.2,68.0,30.08,West,264,0.0,11.0,69,0.00,,,0.00,weatherlink.com 1.10,2013-07-03 10:05:00,
2013-07-03 12:35:00,79.7,67.0,30.08,South,186,7.0,14.0,66,0.00,,,0.00,weatherlink.com 1.10,2013-07-03 10:35:00,
2013-07-03 13:20:00,80.9,68.0,30.08,SW,215,9.0,12.0,64,0.00,,,0.00,weatherlink.com 1.10,2013-07-03 11:20:00,
2013-07-03 13:50:00,80.9,68.0,30.09,SSW,205,10.0,15.0,64,0.00,,,0.00,weatherlink.com 1.10,2013-07-03 11:50:00,
2013-07-03 14:05:00,80.7,67.0,30.08,SSW,203,13.0,17.0,64,0.00,,,0.00,weatherlink.com 1.10,2013-07-03 12:05:00,
2013-07-03 14:20:00,80.6,67.0,30.08,South,183,3.0,13.0,64,0.00,,,0.00,weatherlink.com 1.10,2013-07-03 12:20:00,
2013-07-03 14:36:00,81.0,68.0,30.08,SSE,155,5.0,13.0,64,0.00,,,0.00,weatherlink.com 1.10,2013-07-03 12:36:00,
2013-07-03 15:06:00,82.0,68.0,30.08,East,98,5.0,8.0,62,0.00,,,0.00,weatherlink.com 1.10,2013-07-03 13:06:00,
2013-07-03 15:36:00,80.1,63.0,30.08,NW,321,10.0,14.0,56,0.00,,,0.00,weatherlink.com 1.10,2013-07-03 13:36:00,
2013-07-03 16:06:00,80.3,66.0,30.09,West,280,8.0,15.0,61,0.00,,,0.00,weatherlink.com 1.10,2013-07-03 14:06:00,
2013-07-03 23:24:00,71.3,67.0,30.13,NNW,337,1.0,3.0,86,0.00,,,0.00,weatherlink.com 1.10,2013-07-03 21:24:00,
2013-07-03 23:36:00,71.2,67.0,30.13,NNW,335,0.0,2.0,86,0.00,,,0.00,weatherlink.com 1.10,2013-07-03 21:36:00,
2013-07-03 23:51:00,71.4,67.0,30.14,NE,53,1.0,2.0,86,0.00,,,0.00,weatherlink.com 1.10,2013-07-03 21:51:00,